Regional Weather Roundup
Issued by NWS Newport/Morehead, NC

Current Version | Previous Version | Text Only | Print | Product List | Glossary On
Versions: 1 2 3 4 5 6 7 8 9 10 11 12 13 14 15 16 17 18 19 20 21 22 23 24 25 26 27 28 29 30 31 32 33 34 35 36 37 38 39 40 41 42 43 44 45 46 47 48 49 50
000
ASUS42 KMHX 230410
RWRMHX
WEATHER ROUNDUP FOR EASTERN NORTH CAROLINA
NATIONAL WEATHER SERVICE NEWPORT/MOREHEAD CITY NC
1200 AM EDT THU OCT 23 2014

NOTE: "FAIR" INDICATES FEW OR NO CLOUDS BELOW 12,000 FEET
WITH NO SIGNIFICANT WEATHER AND/OR OBSTRUCTIONS TO VISIBILITY

NCZ015>017-031-032-045>047-102-103-230500-
NORTH COAST

CITY           SKY/WX    TMP DP  RH WIND       PRES   REMARKS
EDENTON        CLOUDY    56  48  74 NW13      29.94S
ELIZABETH CITY CLOUDY    57  47  69 NW14G29   29.91F
KITTY HAWK     CLOUDY    56  50  79 NW13G20   29.87F
MANTEO         CLOUDY    56  49  78 NW16G26   29.89F

$$

NCZ045>047-081-094-103-104-230500-
CENTRAL COAST

CITY           SKY/WX    TMP DP  RH WIND       PRES   REMARKS
FRISCO         CLOUDY    57  50  77 NW15G28   29.91R
SWANQUARTER      N/A     57 N/A N/A NW8G17    29.91S

$$

NCZ095-097-098-100-101-230500-
SOUTHERN COAST

CITY           SKY/WX    TMP DP  RH WIND       PRES   REMARKS
BEAUFORT       CLEAR     57  48  72 NW16      29.97S
CEDAR ISLAND     N/A     59 N/A N/A NW30      29.97S
JACKSONVILLE   CLEAR     52  46  80 W6        30.00S
PINEY ISLAND   CLEAR     60  48  64 NW12      29.95S
WILMINGTON     CLEAR     55  44  66 NW10      30.02S


$$

NCZ011>013-027>030-043-044-078>080-089-090>093-098-230500-
COASTAL PLAIN

CITY           SKY/WX    TMP DP  RH WIND       PRES   REMARKS
AHOSKIE        CLOUDY    54  45  73 NW3       29.97S
CLINTON        CLEAR     53  45  73 CALM      30.03S
ELIZABETHTOWN  CLEAR     55  42  63 NW7       30.04S
GOLDSBORO      CLEAR     52  50  94 W8        29.99S
GREENVILLE     CLEAR     54  46  76 NW5       30.00S
HAVELOCK       PTCLDY    55  47  74 W8        29.99S
KENANSVILLE    CLEAR     52  43  71 CALM      30.02S
KINSTON        CLEAR     55  47  74 W3        30.00S
NEW BERN       CLEAR     56  47  71 W6        29.99R
RICHLANDS      CLEAR     52  43  71 W5        30.01S
ROCKY MOUNT    CLEAR     53  45  74 NW7       30.00S
WASHINGTON     PTCLDY    53  46  77 NW6       29.98R
WHITEVILLE     CLEAR     54  43  66 NW3       30.04S

$$

AMZ130-135-150-152-154-156-158-170-250-252-270-ANZ085-086-088-633-658-670-230500-
MARINE OBSERVATIONS

STATION/POSITION TIME  TEMP    WIND        PRES    WAVE   SWELL
                       AIR SEA DIR/SP/G            HT/PER HT/PER
                 (UTC) (F)     (DEG/KT/KT) (MB)    (FT/S) (FT/S)
CHESAPEAKE LIGHT 0300   58     330/ 32/ 38 1010.9
64 E VA BEACH    0400   61 69  330/ 27/ 33 1007.8   10/ 8
DUCK             0400   56 68  310/ 20/ 24 1011.0
2 E DUCK         0400                        N/A     6/ 7
10 NE DUCK       0400      69                N/A     8/ 8   2/11
OREGON INLET     0400   57 63  310/ 16/ 22 1011.5
13E OREGON INLT  0400      72                N/A     8/ 7   2/11
HATTERAS CG      0400   58 66  320/ 23/ 28 1013.2
DIAMOND BUOY     0400   60     310/ 23/ 29 1012.1    6/ 6   2/ 9
17 S OCRACOKE    NOT AVBL
CAPE LOOKOUT     0300   59     320/ 14/ 17 1014.7
BEAUFORT LAB     0400   58 68  320/  8/ 11 1014.3
30 SE NEW RIVER  0400   64 75  330/ 19/ 23 1014.6    4/ 5
5 SE WRIGHTSVLE  0400   58 72  330/ 19/ 23   N/A
225 S CAPE HAT   0348   71 78  330/ 17/ 23 1014.1    6/ 7   2/10
41 SE CHARLESTON 0400   67 78  350/ 14/ 17 1016.7    3/ 4   2/ 9

$$



USA.gov is the U.S. government's official web portal to all federal, state and local government web resources and services.